This is the latest recevied weather packets stored in our database for station/object KA3BQE-13. If no packets are shown the sender has not sent any weather packets the latest 10 day(s).
| Time | Temp. | Humidity | Pressure | Rain* | Wind** | Luminosity | Snow |
|---|---|---|---|---|---|---|---|
| 1777645990 | 7.22° C | 86% | 1018.6 hPa | 0 mm | - | 193 W/m² | - |
| 1777645687 | 7.78° C | 86% | 1018.7 hPa | 0 mm | - | 133 W/m² | - |
| 1777645383 | 7.78° C | 87% | 1018.8 hPa | 0 mm | - | 319 W/m² | - |
| 1777645078 | 7.78° C | 87% | 1018.8 hPa | 0 mm | - | 136 W/m² | - |
| 1777644775 | 7.78° C | 87% | 1018.8 hPa | 0 mm | - | 166 W/m² | - |
| 1777644473 | 7.78° C | 87% | 1018.6 hPa | 0 mm | - | 257 W/m² | - |
| 1777644169 | 7.78° C | 86% | 1018.7 hPa | 0 mm | - | 407 W/m² | - |
| 1777643865 | 7.22° C | 87% | 1018.8 hPa | 0 mm | - | 263 W/m² | - |
| 1777643563 | 7.22° C | 87% | 1018.7 hPa | 0 mm | - | 192 W/m² | - |
| 1777643259 | 7.22° C | 90% | 1018.8 hPa | 0 mm | - | 186 W/m² | - |
| 1777642957 | 6.67° C | 93% | 1018.6 hPa | 0 mm | - | 213 W/m² | - |
| 1777642653 | 6.11° C | 93% | 1018.7 hPa | 0 mm | - | 80 W/m² | - |
| 1777642350 | 6.67° C | 91% | 1018.6 hPa | 0 mm | - | 66 W/m² | - |
| 1777642046 | 6.67° C | 90% | 1018.6 hPa | 0 mm | - | 163 W/m² | - |
| 1777641742 | 6.67° C | 90% | 1018.5 hPa | 0 mm | - | 259 W/m² | - |
| 1777641437 | 7.22° C | 91% | 1018.3 hPa | 0 mm | - | 199 W/m² | - |
| 1777641133 | 6.11° C | 93% | 1018.2 hPa | 0 mm | - | 158 W/m² | - |
| 1777640829 | 6.11° C | 94% | 1018.2 hPa | 0 mm | - | 132 W/m² | - |
| 1777640525 | 6.11° C | 95% | 1018.1 hPa | 0 mm | - | 118 W/m² | - |
| 1777640223 | 6.11° C | 95% | 1018.1 hPa | 0 mm | - | 113 W/m² | - |
| 1777639919 | 6.11° C | 95% | 1018 hPa | 0 mm | - | 61 W/m² | - |
| 1777639616 | 5.56° C | 95% | 1017.8 hPa | 0 mm | - | 75 W/m² | - |
| 1777639313 | 6.11° C | 95% | 1017.8 hPa | 0 mm | - | 67 W/m² | - |
| 1777639009 | 6.11° C | 95% | 1017.6 hPa | 0 mm | - | 77 W/m² | - |
| 1777638705 | 6.11° C | 95% | 1017.6 hPa | 0 mm | - | 74 W/m² | - |
* Rain latest hour (hover to see other rain measurements)
** Current wind speed in m/s (hover to see current wind gust speed)